User: anonymous   Login
Location: *
(51.5000°N, 0.1100°W)
Time: 19:16:38
(UTC+00:00)
Language:

Cosmos 2082 Rocket - Orbit

View from above orbital plane
View from above orbital plane
View from above satellite
View from above satellite

Ground track
Ground track

The orbit data is extracted from the following two-line orbital elements,

1 20625U 90046B   24201.90000978 -.00000171  00000-0 -63762-4 0  9995
2 20625  70.9999 113.2372 0012541 140.5223 219.6816 14.14848069763834
Epoch (UTC): 19 July 2024 21:36:00
Eccentricity: 0.0012541
inclination: 70.9999°
perigee height: 834 km
apogee height: 852 km
right ascension of ascending node: 113.2372°
argument of perigee: 140.5223°
revolutions per day: 14.14848069
mean anomaly at epoch: 219.6816°
orbit number at epoch: 76383

The dashed part of the orbit path shows where the satellite is in the earth's shadow,  

DLR